Showing default

COSMOS 192, 3047

Orbit data source: Space-Track

COSMOS 192, 3047 is a payload satellite owned by OKB-10 (CIS) in LEO that was launched on Thu, 23 Nov 1967 UTC via a KOSMOS 11K65M launch vehicle from the Plesetsk Missile And Space Complex (PKMTR). Payload-class satellites include a variety of spacecraft equipped with specific instruments for various scientific and technological missions. These include communications satellites like Starlink; space stations such as the ISS; scientific satellites like the Hubble; Earth observation satellites from companies like Planet Labs, Umbra, and HawkEye 360; GPS; miniature CubeSats for education and research; and military/defense satellites.

Loading next visibility...
Identifier
3047, 1967-116A
Orbit
LEO
Last TLE update
16 hours ago
Origin
Manufacturer
OKB-10
Mission
Defense Navigation
Bus & Motor
KAUR-1 11F617, Unknown motor
Mass
775 kg wet, 775 kg dry
Launch date (UTC)
1967-11-23 (58 years ago)
Launch vehicle
KOSMOS 11K65M
Launch site
Plesetsk Missile And Space Complex (PKMTR)
Object type
Payload
Rocket body
Debris
Shape & HBR
Cyl + 1 Rod, 17 m
Radar Cross Section
9.978 m², Large (>1 m²)

Expand to show TLE details & history

TLE from 16 hours ago
0 COSMOS 192
1 03047U 67116A   25183.82322731  .00000255  00000-0  62861-4 0  9991
2 03047  74.0132 320.5281 0008788 219.2018 140.8510 14.57279873 47731
Epoch: 2025-07-02T19:45Z
TLE epoch observation values (Epoch: 2025-07-02T19:45:26.839Z)
Latitude
-0.00008°
Longitude
103.06745°
Altitude
709.434 km
Speed
7.499 km/s
True Right ascension
21h 22m 06s
True Declination
0° 00' 00"
Sunlit
Object was in full shadow at epoch
Visualization orbit readout
Latitude
-8.92247°
Longitude
99.20117°
Altitude
710.449 km
Speed
7.498 km/s
Apparent Right ascension
18h 09m 22s
Apparent Declination
-47° 16' 25"
Sunlit
Object is in full shadow
Visualization observer readout
Local Sidereal Time
23:58:04
Azimuth
229.203° WSW
Elevation
-26.47°
Doppler factor
1
Orbital elements
Apogee altitude
705.793 km
Perigee altitude
693.353 km
Semi-major axis
7,077.71 km
Eccentricity
0.00088
Inclination
74.0132°
RAAN
320.5281°
Arg. of periapsis
219.2018°
True anomaly
Unknown
Mean anomaly
140.851°
Eccentric anomaly
Unknown
Mean motion
3.64505 °/min
Orbital period
98.76 mins
BSTAR
0.000062861
Loading maneuver chart data...
Loading SW <> Apogee altitude chart data...
Loading historical data...
Loading historical data...
Loading historical data...
Loading historical data...
Loading historical data...
Loading historical data...
Loading historical data...

COSMOS 192 Visibility forecast

Observer location: undefined°, undefined°

Span
Click to sort rows by Start time (UTC) header in descending order
Start Az.
Max El. time (UTC)
Max El. Az.
Max El.
End time (UTC)
End Az.
7 mins2025-07-03 19:22:27.431Z11.495° NNE2025-07-03 19:25:27.431Z51.484° ENE20.506°2025-07-03 19:29:27.431Z109.643° ESE
7 mins2025-07-03 21:03:27.431Z318.14° NNW2025-07-03 21:06:27.431Z265.503° W31.968°2025-07-03 21:10:27.431Z193.698° SSW
7 mins2025-07-04 09:47:27.431Z169.381° S2025-07-04 09:50:27.431Z93.68° ESE37.571°2025-07-04 09:54:27.431Z31.105° NE
5 mins2025-07-04 11:29:27.431Z276.222° WNW2025-07-04 11:31:27.431Z306.225° NW17.259°2025-07-04 11:34:27.431Z344.518° N
|